Flag for United Kingdom Weather past 2 weeks in King's Lynn, England, United Kingdom

Now
54 °F

Mostly cloudy.


Feels Like: 49 °F
Forecast: 48 / 58 °F
Wind: 14 mph from West

Location: Marham

Current Time: Oct 22, 2014 at 5:05:00 PM

Latest Report: Oct 22, 2014 at 3:50 PM


Visibility: N/A

Pressure: 30.18 "Hg

Humidity: 72%

Dew point: 45 °F

Location of King's LynnLocation

Historic Weather in King's Lynn — Graph

°F

King's Lynn temperature yesterday

Maximum temperature yesterday: 57 °F (at 8:50 AM)
Minimum temperature yesterday: 45 °F (at 8:50 PM)
Average temperature yesterday: 51 °F

Past Weeks' High & Low Weather Summary

 TemperatureHumidityPressure
High68 °F (Oct 18, 2:50 PM)100% (Oct 10, 2:50 AM)30.21 "Hg (Oct 10, 2:50 AM)
Low39 °F (Oct 12, 5:50 AM)54% (Oct 7, 5:50 PM)29.27 "Hg (Oct 8, 3:50 PM)
Average55 °F86%29.70 "Hg
* Reported Oct 7 2:50 PM — Oct 22 2:50 PM, King's Lynn, Weather by CustomWeather, © 2014

Note: Actual official high and low records may vary slightly from our data, if they occured in-between our weather recording intervals... More about our weather records

Advertising

King's Lynn weather history for previous 24 hours

 ConditionsComfort  
Time TempWeatherWind HumidityBarometerVisibility
2:50 PM
Oct 22
55 °FBroken clouds.15 mph72%30.18 "HgN/A
1:50 PM55 °FPartly sunny.17 mph67%30.18 "HgN/A
12:50 PM55 °FScattered clouds.15 mph72%30.21 "HgN/A
11:50 AM54 °FScattered clouds.14 mph72%30.21 "HgN/A
10:50 AM52 °FPassing clouds.14 mph77%30.21 "HgN/A
9:50 AM48 °FSunny.13 mph82%30.18 "Hg10 mi
8:50 AM46 °FScattered clouds.13 mph82%30.18 "HgN/A
7:50 AM45 °FPassing clouds.14 mph87%30.15 "HgN/A
6:50 AM45 °FPassing clouds.15 mph87%30.15 "HgN/A
5:50 AM45 °FClear.15 mph81%30.12 "Hg10 mi
4:50 AM45 °FClear.16 mph81%30.12 "Hg10 mi
3:50 AM43 °FQuite cool.16 mph87%30.09 "HgN/A
2:50 AM45 °FPassing clouds.16 mph76%30.09 "HgN/A
1:50 AM41 °FQuite cool.13 mph87%30.09 "HgN/A
12:50 AM43 °FClear.14 mph71%30.07 "Hg10 mi
11:50 PM
Oct 21
45 °FClear.17 mph66%30.04 "Hg10 mi
10:50 PM45 °FClear.16 mph71%30.01 "Hg10 mi
9:50 PM45 °FClear.18 mph71%29.95 "Hg10 mi
8:50 PM45 °FClear.18 mph76%29.89 "Hg10 mi
7:50 PM46 °FClear.23 mph66%29.86 "Hg10 mi
6:50 PM48 °FClear.23 mph66%29.80 "Hg10 mi
5:50 PM48 °FPassing clouds.24 mph66%29.74 "HgN/A
Weather by CustomWeather, © 2014

See weather overviewHow to use our weather pages